{"data":{"norad_id":56767,"intl_designator":"2023-078A","name":"STARLINK-6197","alt_names":[],"object_type":"PAYLOAD","status":"ACTIVE","operator":null,"country":"US","launch_date":"2023-05-31","launch_site_code":"AFWTR","launch_vehicle":null,"mission":null,"orbit_class":"UNKNOWN","rcs_meters":null,"size_class":null,"mass_kg":null,"dimensions":null,"purposes":["comms"],"wikipedia_slug":null,"has_3d_model":false,"image_url":null,"decayed_at":null,"tle_current":{"epoch":"2026-05-25T02:43:23.121120Z","epoch_age_seconds":61940,"freshness":"FRESH","line1":"1 56767U 23078A   26145.11346205  .00015391  00000+0  72409-3 0  9994","line2":"2 56767  69.9882 150.8678 0003225 351.9888   8.1230 15.19638998164154","mean_motion":15.19638998,"eccentricity":0.0003225,"inclination_deg":69.9882,"raan_deg":150.8678,"arg_perigee_deg":351.9888,"mean_anomaly_deg":8.123,"bstar":0.00072409,"rev_number":16415,"period_min":94.759347574996,"perigee_km":504.7103643075,"apogee_km":509.15123303764,"semimajor_km":6885.0677986726,"source":"CELESTRAK","updated_at":"2026-05-25T13:38:18.123504Z"}}}